Preview of NWS' New Version of Forecast
This preview is not operational and should not be used for support decisions.

Regional Weather Roundup (RWR)

Issued by National Weather Service (NWS)

                            
000
ASCA42 TJSJ 181510
RWRPR 
PUERTO RICO/U.S. VIRGIN ISLANDS HOURLY WEATHER ROUNDUP
NATIONAL WEATHER SERVICE SAN JUAN PR
1100 AM AST SAT MAY 18 2019

PRZ001>002-007>008-010-181600-
PUERTO RICO
  
CITY           SKY/WX    TMP DP  RH WIND       PRES   REMARKS
SAN JUAN LMM   MOSUNNY   88  73  62 NE17      29.99F HX  96           
AGUADILLA      SUNNY     84  73  70 E10       30.00F HX  91           
CEIBA          SUNNY     88  72  58 E9        30.02F HX  94           
$$

VIZ001>002-181600-
U.S. VIRGIN ISLANDS
  
CITY           SKY/WX    TMP DP  RH WIND       PRES   REMARKS
CHARLOTTE AMA  MOSUNNY   84  72  65 SE15      30.00F                  
CHRISTIANSTED  MOSUNNY   86  73  66 E15       30.01S HX  93           
$$

HOURLY WEATHER ROUNDUP FOR THE NEWS MEDIA
  
CITY           SKY/WX    TMP DP  RH WIND       PRES   REMARKS
ORLANDO        FAIR      81  59  47 VRB5      30.06F                  
NEW YORK       PTSUNNY   67  46  47 N6        30.02R                  
NEWARK         PTSUNNY   69  41  36 NW9       30.01S                  
CHICAGO        FAIR      64  54  69 SE6       29.79F                  
HARTFORD       FAIR      64  42  44 NW8       29.93S                  
BOSTON         FAIR      65  37  35 N10       29.94R                  
DALLAS         LGT RAIN  76  71  85 SE13G20   29.72F                  
PHILADELPHIA   PTSUNNY   69  46  43 SE8       30.03R                  
LOS ANGELES    PTSUNNY   60  52  74 VRB5      29.96R                  
WASHINGTON DC  PTSUNNY   77  64  64 N5        30.02R